[[{"header":{"parameterUnit":"m.s-1","parameterCategory":1,"la1":30.2991,"la2":30.254,"lo1":-89.0895,"lo2":-89.0444,"dy":0.0017,"dx":0.0017,"nx":28,"ny":28,"refTime":"2024-04-15T09:00:00:Z","depth":0,"parameterNumber":2,"parameterNumberName":"U-component_of_WINDS"},"data":[0,0,0,0,0,0,0,0,0,0,0,0,0,0,0,0,0,0,0,0,0,0,0,0,0,0,0,0,0,0,0,0,0,0,0,0,0,0,0,0,0,0,0,0,0,0,0,0,0,0,0,0,0,0,0,0,0,0,-3.1247,-3.1247,0,-3.1254,-3.1254,-3.1254,-3.1197,-3.1195,-3.1194,-3.1192,-3.12,-3.1201,-3.1203,0,0,0,0,0,0,0,0,0,0,0,0,0,-3.1185,-3.1187,-3.1247,-3.1247,-3.1247,-3.1254,-3.1254,-3.1254,-3.1197,-3.1195,-3.1193,-3.1192,-3.1199,-3.1201,-3.1203,0,0,0,0,0,0,0,0,0,0,0,0,0,-3.1204,-3.1187,-3.1247,-3.122,-3.1217,-3.1254,-3.1254,-3.1254,-3.1198,-3.1195,-3.1193,-3.1191,-3.1198,-3.1201,-3.1203,-3.1267,0,0,-3.1211,-3.1212,0,0,0,0,0,0,0,0,-3.1203,-3.1207,-3.1224,-3.1222,-3.1219,-3.1222,-3.1235,-3.1258,-3.1198,-3.1205,-3.1192,-3.119,-3.1209,-3.1211,-3.1217,-3.1267,-3.1267,-3.1211,-3.1213,-3.1214,-3.1215,0,0,0,0,0,0,0,-3.1202,-3.1206,-3.125,-3.1224,-3.1221,-3.1207,-3.1207,-3.1239,-3.122,-3.1204,-3.12,-3.1202,-3.1207,-3.1215,-3.1217,-3.1267,-3.1211,-3.1213,-3.1215,-3.1216,-3.137,-3.1372,0,0,0,0,0,0,-3.1204,-3.1205,-3.125,-3.125,-3.1205,-3.121,-3.121,-3.1224,-3.122,-3.1217,-3.1204,-3.1199,-3.1212,-3.1214,-3.1217,-3.129,-3.1214,-3.1216,-3.1218,-3.1367,-3.137,-3.1373,0,0,0,0,0,0,-3.1203,-3.1209,-3.1249,-3.1226,-3.1231,-3.1214,-3.1229,-3.1225,-3.1232,-3.122,-3.1216,-3.1215,-3.121,-3.1213,-3.1255,-3.1289,-3.1217,-3.122,-3.1364,-3.1368,-3.1371,-3.1437,0,0,0,0,0,0,-3.1202,-3.1209,-3.1232,-3.1227,-3.1232,-3.1287,-3.1231,-3.1227,-3.1237,-3.1231,-3.1229,-3.1226,-3.1208,-3.1251,-3.1257,-3.1292,-3.1222,-3.1361,-3.1366,-3.137,-3.1432,-3.1443,-3.1453,0,0,0,0,0,-3.12,-3.1251,-3.1234,-3.1239,-3.1261,-3.1289,-3.1292,-3.127,-3.124,-3.1263,-3.1255,-3.1226,-3.1285,-3.1256,-3.1262,-3.1298,-3.1358,-3.1364,-3.137,-3.1427,-3.1441,-3.1452,0,0,0,0,0,0,-3.126,-3.1249,-3.1231,-3.1282,-3.1287,-3.1279,-3.1308,-3.1285,-3.1298,-3.1292,-3.1265,-3.1265,-3.1311,-3.1309,-3.1276,-3.1359,-3.1317,-3.1324,-3.1358,-3.1371,-3.1381,-3.138,-3.1224,0,0,0,0,0,-3.1279,-3.1302,-3.1292,-3.1338,-3.1342,-3.1325,-3.1336,-3.1319,-3.1323,-3.1325,-3.132,-3.1325,-3.1345,-3.1358,-3.1375,-3.1432,-3.1431,-3.146,-3.147,-3.1479,-3.1485,-3.1515,-3.1527,-3.1392,-3.1392,-3.1392,0,0,-3.1319,-3.1316,-3.1332,-3.135,-3.1352,-3.1377,-3.1327,-3.1355,-3.1373,-3.1329,-3.1367,-3.1364,-3.1368,-3.1418,-3.1439,-3.1418,-3.1523,-3.1486,-3.1493,-3.1495,-3.1522,-3.1535,-3.1546,-3.1396,-3.1395,-3.1394,0,0,-3.1403,-3.1404,-3.1442,-3.1445,-3.1449,-3.1438,-3.1447,-3.1444,-3.144,-3.1478,-3.1446,-3.1467,-3.1502,-3.1506,-3.1512,-3.1601,-3.1574,-3.1607,-3.166,-3.1689,-3.17,-3.1709,-3.174,-3.1751,-3.1614,-3.1614,-3.1614,0,-3.1452,-3.1488,-3.1465,-3.1495,-3.1504,-3.1466,-3.1504,-3.1509,-3.1518,-3.1525,-3.1501,-3.1544,-3.1544,-3.1593,-3.1615,-3.1622,-3.1632,-3.1606,-3.17,-3.1709,-3.1718,-3.1746,-3.1758,-3.1618,-3.1617,-3.1617,-3.1617,0,-3.1547,-3.1573,-3.1603,-3.1613,-3.1626,-3.166,-3.1642,-3.1658,-3.1641,-3.1632,-3.1672,-3.1671,-3.1687,-3.1698,-3.1682,-3.1746,-3.1732,-3.1705,-3.1661,-3.1735,-3.1761,-3.1772,-3.1623,-3.1622,-3.1621,-3.162,0,0,-3.1668,-3.1666,-3.1677,-3.1681,-3.1683,-3.1702,-3.1736,-3.1752,-3.1765,-3.1774,-3.18,-3.1831,-3.1806,-3.1814,-3.1798,-3.1824,-3.1892,-3.1793,-3.1792,-3.181,-3.1962,-3.1982,-3.1995,-3.1876,-3.1878,-3.188,-3.1962,0,-3.175,-3.1805,-3.1786,-3.1843,-3.1866,-3.1831,-3.186,-3.1865,-3.1858,-3.1877,-3.187,-3.1892,-3.1857,-3.1862,-3.1886,-3.1879,-3.1922,-3.1873,-3.19,-3.1901,-3.1898,-3.2009,-3.2029,-3.2106,-3.1972,-3.1974,-3.1975,0,-3.1852,-3.1864,-3.1923,-3.1921,-3.193,-3.1957,-3.197,-3.1989,-3.1994,-3.1987,-3.1997,-3.1975,-3.2007,-3.1966,-3.201,-3.1977,-3.1987,-3.1986,-3.1988,-3.1988,-3.1941,-3.201,-3.2131,-3.2142,-3.1991,-3.199,-3.1989,0,-3.1932,-3.1964,-3.2003,-3.2008,-3.2007,-3.2027,-3.2027,-3.203,-3.2041,-3.2053,-3.206,-3.2076,-3.2085,-3.2098,-3.2081,-3.2053,-3.2128,-3.2085,-3.2123,-3.2123,-3.2138,-3.2137,-3.226,-3.2148,-3.2148,-3.2148,-3.2148,0,-3.2024,-3.2062,-3.2039,-3.2064,-3.2104,-3.2083,-3.2124,-3.2121,-3.2124,-3.2146,-3.2118,-3.214,-3.2118,-3.2138,-3.2126,-3.2164,-3.2168,-3.2164,-3.216,-3.2165,-3.2166,-3.217,-3.2164,-3.2151,-3.215,-3.215,-3.2149,0,-3.212,-3.2107,-3.2148,-3.2144,-3.2144,-3.2174,-3.2171,-3.2193,-3.2186,-3.2215,-3.2221,-3.2208,-3.2231,-3.2216,-3.2239,-3.223,-3.228,-3.2269,-3.2278,-3.2275,-3.2313,-3.2309,-3.2442,-3.2458,-3.2337,-3.2338,-3.2339,0,-3.2179,-3.2207,-3.2207,-3.222,-3.2222,-3.2244,-3.2256,-3.2236,-3.2249,-3.2257,-3.2278,-3.2299,-3.2313,-3.2351,-3.2344,-3.2361,-3.235,-3.2395,-3.2352,-3.2357,-3.2349,-3.2347,-3.2349,-3.2403,-3.2405,-3.2406,-3.2407,0,-3.2285,-3.2277,-3.2294,-3.231,-3.2324,-3.2335,-3.2344,-3.2357,-3.2337,-3.2353,-3.2376,-3.2387,-3.2411,-3.2431,-3.2446,-3.2446,-3.2423,-3.2421,-3.243,-3.2435,-3.2439,-3.2436,-3.23,-3.2417,-3.2416,-3.2416,-3.2415,-3.2415,-3.2363,-3.2386,-3.2389,-3.2409,-3.2414,-3.2423,-3.2444,-3.2439,-3.2457,-3.2474,-3.2462,-3.2489,-3.2494,-3.2511,-3.2515,-3.2536,-3.2517,-3.2531,-3.2535,-3.2538,-3.2543,-3.2437,-3.2539,-3.2538,-3.2538,-3.2538,-3.2538,0,-3.2465,-3.2466,-3.2485,-3.2498,-3.2515,-3.2493,-3.2501,-3.2516,-3.254,-3.2547,-3.2562,-3.2588,-3.2608,-3.2603,-3.2621,-3.2638,-3.2628,-3.2644,-3.2641,-3.2642,-3.2559,-3.2548,-3.2651,-3.2651,-3.2651,-3.2651,-3.2651,-3.2651,-3.2521,-3.2558,-3.2551,-3.2591,-3.2591,-3.2617,-3.2624,-3.2633,-3.2637,-3.2668,-3.2684,-3.2681,-3.2683,-3.2701,-3.2718,-3.2716,-3.2723,-3.2742,-3.2737,-3.2659,-3.2647,-3.2637,-3.2626,-3.2744,-3.2745,-3.2817,-3.2818,-3.2818]},{"header":{"parameterUnit":"m.s-1","parameterCategory":1,"la1":30.2991,"la2":30.254,"lo1":-89.0895,"lo2":-89.0444,"dy":0.0017,"dx":0.0017,"nx":28,"ny":28,"refTime":"2024-04-15T09:00:00:Z","depth":0,"parameterNumber":3,"parameterNumberName":"V-component_of_WINDS"},"data":[0,0,0,0,0,0,0,0,0,0,0,0,0,0,0,0,0,0,0,0,0,0,0,0,0,0,0,0,0,0,0,0,0,0,0,0,0,0,0,0,0,0,0,0,0,0,0,0,0,0,0,0,0,0,0,0,0,0,3.5137,3.5137,0,3.5176,3.5177,3.5177,3.5189,3.5188,3.5188,3.5188,3.5227,3.5228,3.523,0,0,0,0,0,0,0,0,0,0,0,0,0,3.5071,3.5072,3.5137,3.5137,3.5138,3.5176,3.5177,3.5177,3.5189,3.5188,3.5188,3.5188,3.5227,3.5228,3.523,0,0,0,0,0,0,0,0,0,0,0,0,0,3.5104,3.5072,3.5137,3.5148,3.515,3.5176,3.5177,3.5177,3.5189,3.5188,3.5188,3.5188,3.5226,3.5228,3.523,3.5248,0,0,3.5236,3.5236,0,0,0,0,0,0,0,0,3.5102,3.5106,3.5146,3.5147,3.5149,3.5177,3.5168,3.5201,3.5189,3.5174,3.5188,3.5188,3.5211,3.5214,3.5222,3.5249,3.5251,3.5236,3.5237,3.5238,3.5238,0,0,0,0,0,0,0,3.51,3.5104,3.5152,3.5147,3.5148,3.5151,3.5155,3.5174,3.5194,3.5175,3.5176,3.5181,3.5212,3.522,3.5223,3.5252,3.5236,3.5237,3.5239,3.5239,3.5296,3.5297,0,0,0,0,0,0,3.5095,3.5103,3.5151,3.5154,3.5124,3.5153,3.5157,3.5169,3.5193,3.5197,3.5181,3.5181,3.5217,3.5221,3.5224,3.5247,3.5238,3.5239,3.5241,3.5296,3.5297,3.5297,0,0,0,0,0,0,3.5094,3.51,3.515,3.5128,3.5135,3.5154,3.5166,3.5169,3.5178,3.5198,3.5201,3.5186,3.5217,3.5222,3.5242,3.5249,3.524,3.5242,3.5296,3.5296,3.5297,3.5292,0,0,0,0,0,0,3.5092,3.5099,3.5106,3.5128,3.5136,3.5167,3.5167,3.517,3.5181,3.5182,3.5204,3.5207,3.5217,3.5239,3.5244,3.5251,3.5243,3.5295,3.5296,3.5297,3.5292,3.5293,3.5293,0,0,0,0,0,3.509,3.5103,3.5106,3.5112,3.5145,3.5167,3.5171,3.5183,3.5182,3.5189,3.5202,3.5206,3.5247,3.5241,3.5247,3.5254,3.5295,3.5296,3.5296,3.5291,3.5292,3.5293,0,0,0,0,0,0,3.508,3.5106,3.511,3.5131,3.5147,3.5169,3.5178,3.5184,3.52,3.52,3.5214,3.5218,3.5238,3.5248,3.5241,3.5273,3.5271,3.5273,3.5265,3.5266,3.5267,3.5264,3.5245,0,0,0,0,0,3.508,3.5096,3.5118,3.5134,3.5142,3.5159,3.5169,3.5177,3.5193,3.52,3.5214,3.523,3.5247,3.5257,3.5273,3.5294,3.5299,3.5302,3.5302,3.5303,3.5304,3.5316,3.5318,3.53,3.53,3.53,0,0,3.5081,3.5097,3.5106,3.5133,3.5146,3.5162,3.5164,3.5181,3.5193,3.5202,3.5223,3.5234,3.5252,3.5273,3.5282,3.5282,3.531,3.5304,3.5304,3.5305,3.5317,3.5319,3.532,3.5301,3.53,3.53,0,0,3.509,3.5104,3.512,3.5133,3.5153,3.5165,3.5168,3.519,3.5198,3.5218,3.5226,3.5241,3.5269,3.5282,3.5292,3.5308,3.5313,3.5313,3.5316,3.5328,3.5329,3.533,3.5336,3.5338,3.5314,3.5314,3.5314,0,3.5089,3.5113,3.5127,3.5143,3.5155,3.5165,3.5181,3.5193,3.5217,3.5225,3.5224,3.526,3.5273,3.5297,3.5301,3.5309,3.5314,3.531,3.5328,3.5329,3.5331,3.5336,3.5338,3.5314,3.5314,3.5314,3.5314,0,3.511,3.5127,3.5137,3.5161,3.5174,3.519,3.5205,3.5217,3.5224,3.5235,3.5256,3.5273,3.5293,3.5299,3.5306,3.5324,3.5323,3.5325,3.5323,3.5332,3.5337,3.534,3.5314,3.5314,3.5314,3.5314,0,0,3.5114,3.5146,3.5149,3.516,3.5184,3.5197,3.5214,3.5234,3.5243,3.526,3.5274,3.5299,3.5301,3.5312,3.5321,3.5331,3.5343,3.5332,3.5332,3.5333,3.5364,3.5362,3.5365,3.5346,3.5347,3.5347,3.5363,0,3.5126,3.5156,3.5169,3.5194,3.521,3.522,3.5235,3.5251,3.5262,3.5277,3.529,3.5307,3.5308,3.5315,3.5326,3.5339,3.5349,3.5338,3.536,3.536,3.5354,3.5368,3.5366,3.5379,3.5365,3.5365,3.5365,0,3.5144,3.5162,3.5188,3.521,3.5217,3.523,3.525,3.5265,3.5283,3.5291,3.5304,3.5313,3.5331,3.5328,3.5353,3.5346,3.5355,3.5363,3.5364,3.5366,3.5363,3.537,3.5384,3.5386,3.5369,3.5369,3.5368,0,3.5144,3.5174,3.5194,3.5203,3.523,3.5239,3.525,3.5268,3.528,3.5297,3.5305,3.5324,3.5335,3.5349,3.5363,3.536,3.5387,3.5385,3.5393,3.5393,3.5398,3.5397,3.5414,3.5405,3.5405,3.5404,3.5404,0,3.5157,3.5172,3.5195,3.5206,3.5224,3.5239,3.5257,3.5269,3.5285,3.53,3.531,3.5323,3.534,3.5356,3.5367,3.5386,3.5391,3.5397,3.54,3.5396,3.5395,3.5402,3.5402,3.5405,3.5405,3.5405,3.5405,0,3.5159,3.5175,3.5197,3.5221,3.5227,3.5239,3.5259,3.5272,3.5284,3.5302,3.5307,3.5326,3.5345,3.536,3.5385,3.5392,3.5413,3.5416,3.5406,3.5408,3.5415,3.5414,3.5436,3.544,3.5428,3.5428,3.5429,0,3.5166,3.5178,3.5204,3.5214,3.5226,3.5243,3.5255,3.527,3.5282,3.5305,3.5315,3.5335,3.5351,3.5381,3.5397,3.5416,3.542,3.5426,3.5423,3.5419,3.542,3.5419,3.542,3.5426,3.5427,3.5427,3.5427,0,3.5176,3.5183,3.5201,3.5221,3.5235,3.5252,3.5268,3.5276,3.5295,3.5308,3.5328,3.5341,3.5367,3.5387,3.5408,3.5419,3.5426,3.5428,3.5431,3.5427,3.5421,3.5424,3.5407,3.5427,3.5427,3.5427,3.5427,3.5427,3.5181,3.5193,3.5212,3.5231,3.5246,3.5261,3.5274,3.5288,3.5305,3.5328,3.5336,3.5356,3.5375,3.5404,3.5416,3.5433,3.5433,3.5437,3.5438,3.5439,3.5439,3.5419,3.5437,3.5437,3.5437,3.5437,3.5437,0,3.5192,3.5205,3.5222,3.5246,3.5261,3.5267,3.5286,3.5298,3.5316,3.5333,3.535,3.5373,3.5392,3.541,3.5431,3.544,3.5444,3.5445,3.5444,3.5447,3.5437,3.5432,3.5442,3.5442,3.5442,3.5442,3.5442,3.5442,3.5199,3.5219,3.5229,3.5256,3.527,3.529,3.5301,3.5315,3.5329,3.5355,3.5371,3.5383,3.5401,3.5423,3.5441,3.5446,3.5453,3.5453,3.5458,3.5448,3.5448,3.5447,3.5443,3.5454,3.5454,3.5467,3.5467,3.5467]}]]